Time,TemperatureF,DewpointF,PressureIn,WindDirection,WindDirectionDegrees,WindSpeedMPH,WindSpeedGustMPH,Humidity,HourlyPrecipIn,Conditions,Clouds,dailyrainin,SoftwareType,DateUTC
2013-01-19 00:12:00,29.0,12.0,30.45,SW,230,9.0,13.0,48,-99.99,,,-99.99,,2013-01-19 05:12:00,
2013-01-19 00:22:00,29.0,12.0,30.45,SW,230,9.0,13.0,48,-99.99,,,-99.99,,2013-01-19 05:22:00,
2013-01-19 00:32:00,29.0,12.0,30.45,SW,230,9.0,13.0,48,-99.99,,,-99.99,,2013-01-19 05:32:00,
2013-01-19 00:42:00,29.0,12.0,30.45,SW,230,9.0,13.0,48,-99.99,,,-99.99,,2013-01-19 05:42:00,
2013-01-19 00:50:00,31.0,17.0,30.42,SW,230,20.0,22.0,54,-99.99,,,-99.99,,2013-01-19 05:50:00,
2013-01-19 01:11:00,31.0,17.0,30.42,SW,230,20.0,22.0,54,-99.99,,,-99.99,,2013-01-19 06:11:00,
2013-01-19 01:22:00,31.0,17.0,30.42,SW,230,20.0,22.0,54,-99.99,,,-99.99,,2013-01-19 06:22:00,
2013-01-19 01:32:00,31.0,17.0,30.42,SW,230,20.0,22.0,54,-99.99,,,-99.99,,2013-01-19 06:32:00,
2013-01-19 01:42:00,31.0,17.0,30.42,SW,230,20.0,22.0,54,-99.99,,,-99.99,,2013-01-19 06:42:00,
2013-01-19 01:50:00,33.0,22.0,30.40,SSW,210,20.0,27.0,64,-99.99,,,-99.99,,2013-01-19 06:50:00,
2013-01-19 02:11:00,33.0,22.0,30.40,SSW,210,20.0,27.0,64,-99.99,,,-99.99,,2013-01-19 07:11:00,
2013-01-19 02:22:00,33.0,22.0,30.40,SSW,210,20.0,27.0,64,-99.99,,,-99.99,,2013-01-19 07:22:00,
2013-01-19 02:32:00,33.0,22.0,30.40,SSW,210,20.0,27.0,64,-99.99,,,-99.99,,2013-01-19 07:32:00,
2013-01-19 02:42:00,33.0,22.0,30.40,SSW,210,20.0,27.0,64,-99.99,,,-99.99,,2013-01-19 07:42:00,
2013-01-19 02:50:00,34.0,25.0,30.38,SSW,210,22.0,29.0,67,-99.99,,,-99.99,,2013-01-19 07:50:00,
2013-01-19 03:11:00,34.0,25.0,30.38,SSW,210,22.0,29.0,67,-99.99,,,-99.99,,2013-01-19 08:11:00,
2013-01-19 03:22:00,34.0,25.0,30.38,SSW,210,22.0,29.0,67,-99.99,,,-99.99,,2013-01-19 08:22:00,
2013-01-19 03:32:00,34.0,25.0,30.38,SSW,210,22.0,29.0,67,-99.99,,,-99.99,,2013-01-19 08:32:00,
2013-01-19 03:42:00,34.0,25.0,30.38,SSW,210,22.0,29.0,67,-99.99,,,-99.99,,2013-01-19 08:42:00,
2013-01-19 03:50:00,35.0,26.0,30.35,SSW,210,25.0,31.0,67,-99.99,,,-99.99,,2013-01-19 08:50:00,
2013-01-19 04:22:00,35.0,26.0,30.35,SSW,210,25.0,31.0,67,-99.99,,,-99.99,,2013-01-19 09:22:00,
2013-01-19 04:32:00,35.0,26.0,30.35,SSW,210,25.0,31.0,67,-99.99,,,-99.99,,2013-01-19 09:32:00,
2013-01-19 04:42:00,35.0,26.0,30.35,SSW,210,25.0,31.0,67,-99.99,,,-99.99,,2013-01-19 09:42:00,
2013-01-19 04:50:00,37.0,28.0,30.32,SSW,210,27.0,34.0,70,-99.99,,,-99.99,,2013-01-19 09:50:00,
2013-01-19 05:11:00,37.0,28.0,30.32,SSW,210,27.0,34.0,70,-99.99,,,-99.99,,2013-01-19 10:11:00,
2013-01-19 05:22:00,37.0,28.0,30.32,SSW,210,27.0,34.0,70,-99.99,,,-99.99,,2013-01-19 10:22:00,
2013-01-19 05:32:00,37.0,28.0,30.32,SSW,210,27.0,34.0,70,-99.99,,,-99.99,,2013-01-19 10:32:00,
2013-01-19 05:42:00,37.0,28.0,30.32,SSW,210,27.0,34.0,70,-99.99,,,-99.99,,2013-01-19 10:42:00,
2013-01-19 06:11:00,38.0,30.0,30.31,SW,220,27.0,31.0,73,-99.99,,,-99.99,,2013-01-19 11:11:00,
2013-01-19 06:50:00,39.0,32.0,30.28,SW,220,27.0,34.0,74,-99.99,,,-99.99,,2013-01-19 11:50:00,
2013-01-19 07:50:00,40.0,33.0,30.26,SW,220,27.0,34.0,74,-99.99,,,-99.99,,2013-01-19 12:50:00,
2013-01-19 08:11:00,40.0,33.0,30.26,SW,220,27.0,34.0,74,-99.99,,,-99.99,,2013-01-19 13:11:00,
2013-01-19 08:22:00,40.0,33.0,30.26,SW,220,27.0,34.0,74,-99.99,,,-99.99,,2013-01-19 13:22:00,
2013-01-19 08:32:00,40.0,33.0,30.26,SW,220,27.0,34.0,74,-99.99,,,-99.99,,2013-01-19 13:32:00,
2013-01-19 08:42:00,40.0,33.0,30.26,SW,220,27.0,34.0,74,-99.99,,,-99.99,,2013-01-19 13:42:00,
2013-01-19 08:50:00,41.0,35.0,30.27,SW,220,27.0,34.0,76,-99.99,,,-99.99,,2013-01-19 13:50:00,
2013-01-19 09:12:00,41.0,35.0,30.27,SW,220,27.0,34.0,76,-99.99,,,-99.99,,2013-01-19 14:12:00,
2013-01-19 09:22:00,41.0,35.0,30.27,SW,220,27.0,34.0,76,-99.99,,,-99.99,,2013-01-19 14:22:00,
2013-01-19 09:33:00,41.0,35.0,30.27,SW,220,27.0,34.0,76,-99.99,,,-99.99,,2013-01-19 14:33:00,
2013-01-19 09:42:00,41.0,35.0,30.27,SW,220,27.0,34.0,76,-99.99,,,-99.99,,2013-01-19 14:42:00,
2013-01-19 09:50:00,42.0,35.0,30.26,SW,220,29.0,36.0,74,-99.99,,,-99.99,,2013-01-19 14:50:00,
2013-01-19 10:11:00,42.0,35.0,30.26,SW,220,29.0,36.0,74,-99.99,,,-99.99,,2013-01-19 15:11:00,
2013-01-19 10:22:00,42.0,35.0,30.26,SW,220,29.0,36.0,74,-99.99,,,-99.99,,2013-01-19 15:22:00,
2013-01-19 10:32:00,42.0,35.0,30.26,SW,220,29.0,36.0,74,-99.99,,,-99.99,,2013-01-19 15:32:00,
2013-01-19 10:42:00,42.0,35.0,30.26,SW,220,29.0,36.0,74,-99.99,,,-99.99,,2013-01-19 15:42:00,
2013-01-19 10:50:00,43.0,36.0,30.24,SW,220,27.0,31.0,77,-99.99,,,-99.99,,2013-01-19 15:50:00,
2013-01-19 11:12:00,43.0,36.0,30.24,SW,220,27.0,31.0,77,-99.99,,,-99.99,,2013-01-19 16:12:00,
2013-01-19 11:22:00,43.0,36.0,30.24,SW,220,27.0,31.0,77,-99.99,,,-99.99,,2013-01-19 16:22:00,
2013-01-19 11:32:00,43.0,36.0,30.24,SW,220,27.0,31.0,77,-99.99,,,-99.99,,2013-01-19 16:32:00,
2013-01-19 11:42:00,43.0,36.0,30.24,SW,220,27.0,31.0,77,-99.99,,,-99.99,,2013-01-19 16:42:00,
2013-01-19 12:12:00,43.0,37.0,30.18,SW,220,25.0,29.0,81,-99.99,,,-99.99,,2013-01-19 17:12:00,
2013-01-19 12:22:00,43.0,37.0,30.18,SW,220,25.0,29.0,81,-99.99,,,-99.99,,2013-01-19 17:22:00,
2013-01-19 12:32:00,43.0,37.0,30.18,SW,220,25.0,29.0,81,-99.99,,,-99.99,,2013-01-19 17:32:00,
2013-01-19 12:43:00,43.0,37.0,30.18,SW,220,25.0,29.0,81,-99.99,,,-99.99,,2013-01-19 17:43:00,
2013-01-19 12:50:00,43.0,38.0,30.15,SW,220,27.0,31.0,80,-99.99,,,-99.99,,2013-01-19 17:50:00,
2013-01-19 13:11:00,43.0,38.0,30.15,SW,220,27.0,31.0,80,-99.99,,,-99.99,,2013-01-19 18:11:00,
2013-01-19 13:22:00,43.0,38.0,30.15,SW,220,27.0,31.0,80,-99.99,,,-99.99,,2013-01-19 18:22:00,
2013-01-19 13:32:00,43.0,38.0,30.15,SW,220,27.0,31.0,80,-99.99,,,-99.99,,2013-01-19 18:32:00,
2013-01-19 13:42:00,43.0,38.0,30.15,SW,220,27.0,31.0,80,-99.99,,,-99.99,,2013-01-19 18:42:00,
2013-01-19 13:50:00,43.0,38.0,30.12,SW,230,25.0,29.0,81,-99.99,,,-99.99,,2013-01-19 18:50:00,
2013-01-19 14:22:00,43.0,38.0,30.12,SW,230,25.0,29.0,81,-99.99,,,-99.99,,2013-01-19 19:22:00,
2013-01-19 14:50:00,44.0,38.0,30.10,SW,220,25.0,29.0,81,-99.99,,,-99.99,,2013-01-19 19:50:00,
2013-01-19 15:12:00,44.0,38.0,30.10,SW,220,25.0,29.0,81,-99.99,,,-99.99,,2013-01-19 20:12:00,
2013-01-19 15:22:00,44.0,38.0,30.10,SW,220,25.0,29.0,81,-99.99,,,-99.99,,2013-01-19 20:22:00,
2013-01-19 15:42:00,44.0,38.0,30.10,SW,220,25.0,29.0,81,-99.99,,,-99.99,,2013-01-19 20:42:00,
2013-01-19 15:50:00,44.0,38.0,30.08,SW,220,22.0,27.0,79,-99.99,,,-99.99,,2013-01-19 20:50:00,
2013-01-19 16:22:00,44.0,38.0,30.08,SW,220,22.0,27.0,79,-99.99,,,-99.99,,2013-01-19 21:22:00,
2013-01-19 16:32:00,44.0,38.0,30.08,SW,220,22.0,27.0,79,-99.99,,,-99.99,,2013-01-19 21:32:00,
2013-01-19 16:43:00,44.0,38.0,30.08,SW,220,22.0,27.0,79,-99.99,,,-99.99,,2013-01-19 21:43:00,
2013-01-19 16:50:00,44.0,38.0,30.08,SW,230,20.0,25.0,79,-99.99,,,-99.99,,2013-01-19 21:50:00,
2013-01-19 17:22:00,44.0,38.0,30.08,SW,230,20.0,25.0,79,-99.99,,,-99.99,,2013-01-19 22:22:00,
2013-01-19 17:32:00,44.0,38.0,30.08,SW,230,20.0,25.0,79,-99.99,,,-99.99,,2013-01-19 22:32:00,
2013-01-19 17:42:00,44.0,38.0,30.08,SW,230,20.0,25.0,79,-99.99,,,-99.99,,2013-01-19 22:42:00,
2013-01-19 18:12:00,44.0,38.0,30.07,SW,220,18.0,20.0,81,-99.99,,,-99.99,,2013-01-19 23:12:00,
2013-01-19 18:32:00,44.0,38.0,30.07,SW,220,18.0,20.0,81,-99.99,,,-99.99,,2013-01-19 23:32:00,
2013-01-19 18:42:00,44.0,38.0,30.07,SW,220,18.0,20.0,81,-99.99,,,-99.99,,2013-01-19 23:42:00,
2013-01-19 18:50:00,44.0,39.0,30.07,SW,220,18.0,20.0,82,-99.99,,,-99.99,,2013-01-19 23:50:00,
2013-01-19 19:12:00,44.0,39.0,30.07,SW,220,18.0,20.0,82,-99.99,,,-99.99,,2013-01-20 00:12:00,
2013-01-19 19:22:00,44.0,39.0,30.07,SW,220,18.0,20.0,82,-99.99,,,-99.99,,2013-01-20 00:22:00,
2013-01-19 19:33:00,44.0,39.0,30.07,SW,220,18.0,20.0,82,-99.99,,,-99.99,,2013-01-20 00:33:00,
2013-01-19 19:43:00,44.0,39.0,30.07,SW,220,18.0,20.0,82,-99.99,,,-99.99,,2013-01-20 00:43:00,
2013-01-19 19:50:00,43.0,39.0,30.06,SW,220,13.0,18.0,85,-99.99,,,-99.99,,2013-01-20 00:50:00,
2013-01-19 20:12:00,43.0,39.0,30.06,SW,220,13.0,18.0,85,-99.99,,,-99.99,,2013-01-20 01:12:00,
2013-01-19 20:22:00,43.0,39.0,30.06,SW,220,13.0,18.0,85,-99.99,,,-99.99,,2013-01-20 01:22:00,
2013-01-19 20:32:00,43.0,39.0,30.06,SW,220,13.0,18.0,85,-99.99,,,-99.99,,2013-01-20 01:32:00,
2013-01-19 20:42:00,43.0,39.0,30.06,SW,220,13.0,18.0,85,-99.99,,,-99.99,,2013-01-20 01:42:00,
2013-01-19 20:50:00,44.0,40.0,30.04,SW,220,13.0,16.0,88,-99.99,,,-99.99,,2013-01-20 01:50:00,
2013-01-19 21:42:00,44.0,40.0,30.04,SW,220,13.0,16.0,88,-99.99,,,-99.99,,2013-01-20 02:42:00,
2013-01-19 21:50:00,44.0,40.0,30.02,SW,220,13.0,16.0,88,-99.99,,,-99.99,,2013-01-20 02:50:00,
2013-01-19 22:11:00,44.0,40.0,30.02,SW,220,13.0,16.0,88,-99.99,,,-99.99,,2013-01-20 03:11:00,
2013-01-19 22:22:00,44.0,40.0,30.02,SW,220,13.0,16.0,88,-99.99,,,-99.99,,2013-01-20 03:22:00,
2013-01-19 22:32:00,44.0,40.0,30.02,SW,220,13.0,16.0,88,-99.99,,,-99.99,,2013-01-20 03:32:00,
2013-01-19 22:42:00,44.0,40.0,30.02,SW,220,13.0,16.0,88,-99.99,,,-99.99,,2013-01-20 03:42:00,
2013-01-19 22:50:00,45.0,42.0,29.99,SW,220,22.0,27.0,88,-99.99,,,-99.99,,2013-01-20 03:50:00,
2013-01-19 23:11:00,45.0,42.0,29.99,SW,220,22.0,27.0,88,-99.99,,,-99.99,,2013-01-20 04:11:00,
2013-01-19 23:22:00,45.0,42.0,29.99,SW,220,22.0,27.0,88,-99.99,,,-99.99,,2013-01-20 04:22:00,
2013-01-19 23:32:00,45.0,42.0,29.99,SW,220,22.0,27.0,88,-99.99,,,-99.99,,2013-01-20 04:32:00,
2013-01-19 23:42:00,45.0,42.0,29.99,SW,220,22.0,27.0,88,-99.99,,,-99.99,,2013-01-20 04:42:00,
2013-01-19 23:50:00,45.0,42.0,29.96,SSW,210,22.0,27.0,91,-99.99,,,-99.99,,2013-01-20 04:50:00,